Location: Peterborough
(44.3091°N, 78.3197°W)
Time: 04:35:44
(UTC-04:00)

Tiros 1 - Pass Details

Date: 04 April 2023
Orbit: 627 x 661 km, 48.4° (Epoch: 09 June)

Event Time Altitude Azimuth Distance (km) Brightness Sun altitude
Rises 08:36:07 0° 292° (WNW) 2,992 10.0 18.2°
Reaches altitude 10° 08:38:33 10° 286° (WNW) 2,078 9.2 18.6°
Maximum altitude 08:43:05 44° 215° (SW) 916 8.0 19.4°
Drops below altitude 10° 08:47:36 10° 144° (SE) 2,062 10.6 20.2°
Sets 08:50:01 0° 137° (SE) 2,967 11.4 20.6°
